This demonstration page uses our WeatherBlox Daily Observations layout. Learn more.

Left ArrowRight Arrow

39.01783, -85.05884

Hourly Observations for September 24, 2017

Temp ( °F °C ) Dew Point ( °F °C ) Humidity (%) Winds ( mph kmh ) Pressure ( in mb ) Visibility ( mi km ) Precip ( " mm )
12:52 am 00:52 Clear 74 23.3 64 17.8 71 71 Calm 30.05 1018 10 16 0.00 0.00
1:52 am 01:52 Clear 73 22.8 63 17.2 71 71 E 3 6 30.05 1018 10 16 0.00 0.00
2:52 am 02:52 Clear 72 22.2 62 16.7 71 71 Calm 30.05 1018 10 16 0.00 0.00
3:52 am 03:52 Clear 71 21.7 64 17.8 79 79 NE 5 7 30.06 1018 10 16 0.00 0.00
4:52 am 04:52 Clear 69 20.6 63 17.2 81 81 E 3 6 30.06 1018 10 16 0.00 0.00
5:52 am 05:52 Clear 67 19.4 62 16.7 84 84 E 6 9 30.06 1018 10 16 0.00 0.00
6:52 am 06:52 Clear 67 19.4 62 16.7 84 84 E 7 11 30.07 1018 10 16 0.00 0.00
7:52 am 07:52 Sunny 67 19.4 62 16.7 84 84 E 6 9 30.09 1019 10 16 0.00 0.00
8:52 am 08:52 Mostly Sunny 70 21.1 63 17.2 79 79 E 8 13 30.09 1019 10 16 0.00 0.00
9:52 am 09:52 Sunny 74 23.3 63 17.2 69 69 E 8 13 30.09 1019 10 16 0.00 0.00
10:52 am 10:52 Sunny 77 25 64 17.8 64 64 ESE 5 7 30.09 1019 10 16 0.00 0.00
11:52 am 11:52 Mostly Sunny 81 27.2 65 18.3 58 58 ESE 6 9 30.09 1019 10 16 0.00 0.00
12:52 pm 12:52 Sunny 85 29.4 64 17.8 50 50 SE 8 13 30.08 1019 10 16 0.00 0.00
1:52 pm 13:52 Mostly Sunny 88 31.1 58 14.4 36 36 SE 12 19 30.06 1018 10 16 0.00 0.00
2:52 pm 14:52 Mostly Sunny 88 31.1 55 12.8 33 33 E 8 13 30.04 1017 10 16 0.00 0.00
3:52 pm 15:52 Mostly Sunny 89 31.7 56 13.3 33 33 SSE 9 15 30.03 1017 10 16 0.00 0.00
4:52 pm 16:52 Mostly Sunny 88 31.1 53 11.7 30 30 ESE 9 15 30.01 1016 10 16 0.00 0.00
5:52 pm 17:52 Mostly Sunny 87 30.6 54 12.2 32 32 SSE 10 17 30.01 1016 10 16 0.00 0.00
6:52 pm 18:52 Partly Cloudy 79 26.1 55 12.8 44 44 SSE 6 9 30.02 1017 10 16 0.00 0.00
7:52 pm 19:52 Partly Cloudy 77 25 55 12.8 47 47 SE 5 7 30.02 1017 10 16 0.00 0.00
8:52 pm 20:52 Partly Cloudy 74 23.3 53 11.7 48 48 SE 3 6 30.03 1017 10 16 0.00 0.00
9:52 pm 21:52 Mostly Cloudy 74 23.3 55 12.8 52 52 Calm 30.03 1017 10 16 0.00 0.00
10:52 pm 22:52 Mostly Cloudy 75 23.9 55 12.8 50 50 ESE 3 6 30.03 1017 10 16 0.00 0.00
11:52 pm 23:52 Mostly Cloudy 71 21.7 56 13.3 59 59 SE 3 6 30.02 1017 10 16 0.00 0.00

Powered by AerisWeather